Regional Weather Roundup
Issued by NWS

Home | Current Version | Previous Version | Graphics & Text | Print | Product List | Glossary On
Versions: 1 2 3 4 5 6 7 8 9 10 11 12 13 14 15 16 17 18 19 20 21 22 23 24 25 26 27 28 29 30 31 32 33 34 35 36 37 38 39 40 41 42 43 44 45 46 47 48 49 50
514
ASUS43 KMKX 260459
RWRWI

WISCONSIN REGIONAL WEATHER ROUNDUP
NATIONAL WEATHER SERVICE MILWAUKEE/SULLIVAN WI
1200 AM CDT THU APR 26 2018

NOTE: "FAIR" INDICATES FEW OR NO CLOUDS BELOW 12,000 FEET WITH NO
SIGNIFICANT WEATHER AND/OR OBSTRUCTIONS TO VISIBILITY.

WIZ001-002-006>008-014>016-023>028-260600-
NORTHWEST WISCONSIN

CITY           SKY/WX    TMP DP  RH WIND       PRES   REMARKS
SUPERIOR ARPT  FAIR      35  28  74 CALM      29.91F
ASHLAND        FAIR      35  25  66 SW8       29.92F WCI  29
HAYWARD        FAIR      33  24  69 CALM      29.93F
SIREN          FAIR      36  25  65 CALM      29.94F
CUMBERLAND     FAIR      37  27  65 CALM      29.95F
RICE LAKE      FAIR      36  32  85 CALM      29.95F
CHETEK         FAIR      35  28  73 CALM      29.95F
LADYSMITH      FAIR      37  29  72 CALM      29.96F
EAU CLAIRE     NOT AVBL
MENOMONIE      FAIR      42  32  67 CALM      29.96F
NEW RICHMOND   FAIR      39  31  72 CALM      29.96F
OSCEOLA        FAIR      39  31  70 CALM      29.97F
$$

WIZ003>005-009-010-017-018-260600-
NORTH CENTRAL WISCONSIN

CITY           SKY/WX    TMP DP  RH WIND       PRES   REMARKS
MANITOWISH WTR FAIR      29  25  86 CALM      29.93F
ARBOR VITAE    FAIR      34  24  66 CALM      29.93F
WOODRUFF       FAIR      34  24  66 CALM      29.93F
RHINELANDER    FAIR      31  23  72 CALM      29.94F
EAGLE RIVER    FAIR      31  22  71 CALM      29.93F
LAND O LAKES   FAIR      28  23  80 CALM      29.95F
PHILLIPS       FAIR      32  26  79 CALM      29.94S
TOMAHAWK       FAIR      29  24  80 CALM      29.95F
MEDFORD        FAIR      36  28  73 CALM      29.94F
MERRILL        FAIR      31  26  80 CALM      29.96F
$$

WIZ029-030-035-036-043>047-260600-
CENTRAL WISCONSIN

CITY           SKY/WX    TMP DP  RH WIND       PRES   REMARKS
WAUSAU         FAIR      37  27  67 CALM      29.93F
MOSINEE        FAIR      37  27  65 W3        29.97F
MARSHFIELD     FAIR      40  30  67 CALM      29.94F
STEVENS POINT  FAIR      32  27  81 CALM      29.97S
WAUPACA        FAIR      41  32  70 CALM      29.97S
WAUTOMA        FAIR      32  28  85 CALM      29.97F
WISC RAPIDS    FAIR      35  26  69 CALM      29.97F
CAMP DOUGLAS   FAIR      32  27  80 CALM      29.96F
$$

WIZ011>013-019>022-031-037>040-048>050-260600-
NORTHEAST WISCONSIN

CITY           SKY/WX    TMP DP  RH WIND       PRES   REMARKS
ANTIGO         FAIR      33  32  97 CALM      29.95S
SHAWANO        FAIR      37  32  84 CALM      29.96S
OCONTO         FAIR      35  28  75 CALM      29.98F
STURGEON BAY   FAIR      36  28  73 S6        29.97F WCI  31
GREEN BAY      FAIR      39  31  72 S5        29.97F
MANITOWOC      FAIR      36  28  73 S3        29.98F
APPLETON       FAIR      39  30  70 S5        29.95F
CLINTONVILLE   FAIR      42  29  59 SW6       29.95F
OSHKOSH        FAIR      39  33  79 S9        29.96F WCI  33
$$

WIZ032>034-041-042-053>061-260600-
SOUTHWEST WISCONSIN

CITY           SKY/WX    TMP DP  RH WIND       PRES   REMARKS
LA CROSSE      FAIR      44  31  60 CALM      29.97F
SPARTA         FAIR      33  28  80 CALM      29.98F
VIROQUA        FAIR      48  27  44 CALM      29.97S
BOSCOBEL       FAIR      39  31  72 CALM      29.98S
PRAIRIE DU CHI FAIR      42  30  61 CALM      29.98S
PLATTEVILLE    FAIR      50  29  43 E3        29.97F
$$

WIZ056-057-062-063-064-067-068-260600-
SOUTH CENTRAL WISCONSIN

CITY           SKY/WX    TMP DP  RH WIND       PRES   REMARKS
REEDSBURG      FAIR      40  33  75 CALM      29.96F
BARABOO/DELLS  FAIR      38  26  61 CALM      29.97F
LONE ROCK      FAIR      39  32  76 CALM      29.97F
MINERAL POINT  FAIR      50  27  40 E3        29.96F
MADISON        FAIR      44  33  65 S10       29.97F
MIDDLETON      FAIR      46  34  63 SE7       29.98F
WATERTOWN      FAIR      38  31  78 CALM      30.00S
MONROE         FAIR      43  32  65 E6        29.99R
JANESVILLE     FAIR      37  32  81 SE3       30.01R
$$

WIZ051-052-058>065-066-070>072-260600-
SOUTHEAST WISCONSIN

CITY           SKY/WX    TMP DP  RH WIND       PRES   REMARKS
MILWAUKEE      FAIR      38  28  67 SW3       30.00F
WAUKESHA       FAIR      34  28  80 CALM      30.00F
MILWAUKEE/TIMM FAIR      34  27  75 CALM      30.01F
RACINE         FAIR      32  27  81 SW3       30.01F
BURLINGTON     FAIR      33  29  83 CALM      30.00F
KENOSHA        FAIR      35  27  72 NW3       30.00F
FOND DU LAC    FAIR      37  31  78 S8        29.97F WCI  31
SHEBOYGAN      FAIR      36  30  79 SW3       29.98F
WEST BEND      FAIR      32  32 100 CALM      30.00S
JUNEAU         FAIR      38  30  75 SE3       30.00F
$$

LSZ147-162-260600-
LAKE SUPERIOR

STATION/POSITION TIME  TEMP    WIND        PRES    WAVE
                       AIR SEA DIR/SP/G            HT/PER
                 (UTC) (F)     (DEG/KT/KT) (MB)    (FT/S)
DEVILS ISLAND    0400   49     180/ 10/ 12 1013.2F
SAXON HARBOR     0430   36     200/  3/  6 1012.9S
$$

LMZ867-665-643>646-260600-
LAKE MICHIGAN

STATION/POSITION TIME  TEMP    WIND        PRES    WAVE
                       AIR SEA DIR/SP/G            HT/PER
                 (UTC) (F)     (DEG/KT/KT) (MB)    (FT/S)
NORTHPORT PIER   0440   35                 1014.9F
KEWAUNEE LAKESHO 0430   39     230/  3/  5 1014.6F
SHEBOYGAN LAKESH 0400   40     240/  4/  5 1016.5F
PORT WASHINGTON  0440   37     260/  3/  4 1016.9F
MILWAUKEE LAKESH 0440   40     240/  2/  2   N/A
KENOSHA   LAKESH 0400   40                 1016.3
$$

TC  - TEMPERATURE IN CELSIUS
VSB - VISIBILITY IN STATUTE MILES
WCI - WIND CHILL INDEX
HX  - HEAT INDEX





USA.gov is the U.S. government's official web portal to all federal, state and local government web resources and services.